Wind_Speed
63 62 61 59 58 57 56 55 55 55 55 55 55 55 56 56 56 57 57 57 57 57 58 58 58 58 59 59 58 58 57 56 54 52 50 48 47 46 44 42 40 36 32 29 25 22 20 19 19 21 24 27 29 32 34 37 39 42 44 46 48 50 52 54 55 56 57 57 58 58 58 58 58 59 60 61 62 62 63 64 65 66 67 68 68 69
61 61 59 58 57 56 55 55 54 54 55 55 55 55 55 56 56 56 57 57 57 57 57 58 58 58 58 58 57 57 56 55 54 52 50 48 45 44 42 41 38 35 32 29 26 23 20 19 19 20 22 24 26 29 31 34 37 40 42 45 47 49 51 53 54 55 56 56 57 57 57 57 58 59 60 61 62 62 63 64 64 65 66 66 67 68
60 59 58 57 55 54 54 54 54 54 54 54 55 55 55 55 55 56 56 56 57 57 57 57 57 57 57 56 56 56 55 54 53 52 50 48 45 43 41 39 37 35 32 30 27 24 21 19 19 20 22 24 26 29 31 33 36 39 41 44 46 49 51 52 54 55 56 57 58 58 58 59 59 60 62 63 63 64 64 65 65 66 66 67 67 68
59 58 57 56 55 54 53 53 53 53 54 54 54 55 55 55 55 55 56 56 56 57 57 57 57 56 56 56 55 54 54 53 52 51 50 48 45 43 40 38 36 34 32 29 27 25 23 20 19 20 22 25 27 30 32 34 36 38 41 43 46 48 50 52 54 56 58 59 60 60 61 61 62 63 64 65 65 66 66 67 67 67 68 68 68 69
57 56 56 55 54 53 53 53 53 53 53 54 54 55 55 55 55 55 56 56 56 56 56 56 56 56 55 55 54 53 53 52 51 50 49 48 46 43 41 38 36 33 31 29 28 26 24 22 21 21 22 24 27 30 32 35 37 39 41 43 45 47 50 52 54 56 58 59 60 61 62 63 64 65 66 67 67 67 68 68 68 69 69 69 70 70
56 55 55 54 53 53 53 52 52 53 53 54 54 55 55 55 56 56 56 56 56 56 56 56 56 55 55 54 54 53 52 51 50 49 48 47 46 44 42 39 36 34 32 30 28 27 25 25 24 23 23 24 26 28 31 34 36 39 41 43 45 47 49 51 53 55 56 58 60 61 63 64 65 66 67 68 68 68 68 69 69 69 70 70 71 71
55 55 54 53 53 52 52 52 52 52 53 53 54 55 55 56 56 56 56 57 57 57 56 56 56 55 55 54 53 52 51 50 49 48 47 46 45 44 43 41 38 35 33 31 29 28 27 26 26 26 25 25 26 27 29 32 34 37 40 42 44 46 48 50 52 54 56 57 59 61 63 64 65 67 67 68 68 69 69 69 70 70 70 70 71 71
54 54 53 53 52 52 52 52 52 52 53 53 54 55 55 56 56 57 57 57 57 57 57 57 56 56 55 54 53 52 51 50 49 48 47 46 45 44 43 42 40 37 35 33 31 30 29 28 28 28 28 28 28 28 29 30 32 35 37 40 42 45 47 49 52 54 56 57 59 61 62 64 65 67 68 69 69 69 70 70 70 71 71 71 71 71
53 53 53 52 52 52 52 52 52 52 53 53 54 55 55 56 57 57 57 58 58 58 57 57 57 56 56 55 54 53 52 51 49 48 47 45 44 43 43 42 41 39 38 36 34 32 31 31 30 30 30 30 30 30 30 31 32 34 35 38 40 42 45 48 50 52 55 57 59 61 62 64 66 67 69 70 71 71 72 72 72 72 72 72 73 73
53 52 52 52 52 52 52 52 53 53 53 54 54 55 56 56 57 57 58 58 58 58 58 58 57 57 56 55 54 53 52 51 50 48 47 46 44 43 42 41 41 40 39 38 37 36 35 34 33 33 33 33 33 33 33 33 34 34 35 37 39 41 43 45 48 50 52 54 57 59 61 63 65 67 69 71 72 73 74 75 75 75 75 76 76 76
53 52 52 52 52 52 52 52 53 53 53 54 55 55 56 56 57 57 58 58 58 58 58 58 57 57 57 56 55 54 53 52 51 49 48 46 45 43 42 41 41 40 40 39 39 38 38 37 37 36 36 36 36 36 36 36 37 37 38 38 39 41 42 44 46 48 50 52 54 56 58 61 63 65 67 70 72 73 75 76 77 78 79 79 80 80
52 52 52 52 52 52 52 53 53 54 54 55 55 56 56 56 57 57 58 58 58 58 58 57 57 57 56 56 55 54 53 52 51 50 49 47 46 44 43 42 41 40 40 40 39 40 39 39 39 39 39 39 39 39 39 39 40 40 40 41 42 43 43 45 46 47 49 50 52 54 56 58 60 62 64 66 68 71 73 75 76 78 80 81 82 83
52 52 52 52 52 52 53 53 54 54 54 55 55 56 56 57 57 57 57 57 57 57 57 57 56 56 55 55 55 54 54 53 52 51 50 48 47 45 44 43 42 41 41 40 40 40 41 41 41 41 41 42 42 42 42 42 43 43 43 44 45 45 46 47 48 49 50 51 52 53 55 56 58 59 61 63 65 67 69 70 72 74 76 78 80 81
51 51 51 52 52 52 52 53 53 54 54 54 55 55 56 56 56 56 56 56 56 55 55 55 55 55 54 54 54 54 53 53 52 52 51 50 48 47 46 45 44 43 42 42 42 42 42 42 42 43 43 43 44 44 45 45 45 46 46 47 47 48 49 49 50 51 51 52 53 54 55 56 57 58 60 61 62 64 65 67 68 70 72 73 75 76
50 50 51 51 51 51 52 52 53 53 53 53 54 54 54 54 54 54 54 54 54 54 54 54 54 54 53 53 53 53 53 53 53 52 52 51 50 49 48 47 46 46 45 44 44 43 43 43 44 44 44 45 45 46 46 47 48 48 49 49 50 51 51 52 53 53 54 55 55 56 57 58 58 59 60 61 62 63 64 65 66 67 68 70 71 72
49 49 50 50 50 50 51 51 51 52 52 52 52 52 52 52 52 52 52 52 53 53 53 53 53 53 53 53 53 53 53 53 53 53 52 52 51 51 50 50 49 49 48 47 47 46 46 46 46 46 46 46 47 47 48 48 49 50 50 51 52 53 54 55 55 56 57 57 58 59 59 60 60 61 62 62 63 64 64 65 66 67 67 68 69 70
49 49 49 49 49 49 50 50 50 50 50 51 51 51 51 51 51 51 52 52 52 52 53 53 53 53 54 54 53 53 53 53 54 54 54 53 53 52 52 51 51 51 51 50 50 50 49 49 49 49 49 49 49 49 49 50 50 51 52 53 54 55 56 57 57 58 59 60 60 61 62 62 63 63 64 65 65 66 66 67 68 68 69 69 70 70
49 49 49 49 49 49 49 49 49 49 50 50 50 51 51 51 51 51 52 52 52 53 53 53 53 54 54 55 55 54 54 54 55 55 55 55 54 54 53 53 53 53 53 53 53 52 52 52 52 52 52 52 52 52 52 52 53 53 53 54 55 56 57 58 59 60 61 62 62 63 64 65 65 66 67 67 68 68 69 69 70 70 71 71 72 72
49 49 49 49 49 49 49 49 49 50 50 50 51 51 51 52 52 52 52 53 53 53 54 54 54 55 55 55 56 56 55 56 56 57 57 57 56 56 55 55 55 55 55 55 55 55 55 55 55 55 55 55 55 55 55 55 56 56 56 57 57 58 59 60 61 61 62 63 64 65 66 66 67 68 69 69 70 71 71 72 72 73 73 73 74 74
49 49 49 49 49 50 50 50 50 50 51 51 51 52 52 52 53 53 53 54 54 54 54 55 55 55 55 56 56 56 56 57 58 58 59 59 58 58 57 57 57 57 58 57 57 57 57 57 58 58 58 58 58 58 58 58 59 59 59 60 60 61 61 62 63 64 64 65 66 67 67 68 69 70 70 71 72 72 73 74 74 75 75 76 76 77
49 49 49 49 49 50 50 51 51 51 51 52 52 53 53 53 53 54 54 54 55 55 55 56 56 56 56 57 57 57 58 58 59 60 60 60 60 59 59 59 59 59 60 60 59 59 59 60 60 60 61 61 61 61 61 61 61 62 62 63 63 64 64 65 66 66 67 68 68 69 69 70 71 71 72 73 73 74 75 75 76 76 77 77 78 78
50 50 50 50 50 50 50 51 51 52 52 52 53 53 54 54 54 55 55 56 56 56 57 57 57 57 58 58 58 59 59 59 60 61 62 62 62 61 61 60 61 61 61 61 61 61 61 62 62 63 63 63 63 63 64 64 64 65 65 66 66 67 67 68 69 69 70 70 71 72 72 73 73 74 74 75 75 76 76 77 77 78 78 79 79 80
50 50 50 50 50 50 51 51 52 52 53 53 54 54 54 55 55 56 57 57 57 58 58 59 59 59 59 59 59 60 60 61 61 62 63 64 64 63 62 62 62 63 63 63 63 63 63 63 64 64 65 65 65 65 66 66 66 67 67 68 69 69 70 71 71 72 72 73 74 74 75 75 76 76 77 77 77 78 78 78 79 79 79 80 80 81
51 51 51 51 51 51 51 52 52 53 54 54 55 55 56 56 57 57 58 58 59 59 60 60 61 61 61 61 61 61 61 62 62 63 64 65 65 65 64 64 64 64 64 64 64 64 64 65 65 65 66 66 66 67 67 67 68 68 69 70 71 71 72 73 73 74 75 75 76 76 77 77 78 78 79 79 79 80 80 80 81 81 81 82 82 82
52 52 52 52 52 52 53 53 54 54 55 55 56 57 57 58 58 59 60 60 60 61 62 62 62 63 62 62 63 63 63 63 63 64 65 66 66 66 65 65 65 65 65 65 65 65 65 65 66 66 67 67 67 68 68 68 69 69 70 71 72 72 73 74 75 75 76 77 77 78 78 79 79 80 80 81 81 81 82 82 82 83 83 83 84 84
54 54 54 54 54 54 54 55 55 56 56 57 58 59 59 60 61 61 61 62 62 63 63 64 64 64 64 64 64 64 64 64 64 65 65 66 67 67 66 66 66 66 66 66 66 65 66 66 66 67 67 67 68 68 68 69 69 70 70 71 72 73 73 74 75 76 76 77 78 78 79 79 80 80 81 81 82 82 82 83 83 83 84 84 85 85
55 55 55 55 55 56 56 56 57 58 58 59 60 60 61 62 63 63 64 64 64 65 65 66 66 66 66 66 66 66 66 66 66 66 66 67 67 67 67 67 66 66 67 67 66 66 66 66 67 67 67 68 68 68 68 69 69 70 70 71 72 72 73 74 74 75 76 76 77 78 78 79 79 80 80 81 81 82 82 83 83 83 84 84 85 85
56 56 56 57 57 57 58 58 59 59 60 61 61 62 63 64 65 66 66 66 67 67 68 68 68 68 68 68 68 68 67 67 67 67 67 67 68 68 68 67 67 67 67 67 67 66 66 66 67 67 67 67 68 68 68 68 69 69 70 70 71 71 72 73 73 74 74 75 76 76 76 77 78 78 79 79 80 80 81 81 82 82 83 83 84 85
58 58 58 58 58 59 59 60 60 61 62 62 63 64 65 65 66 67 68 68 69 69 70 70 70 70 70 70 70 70 69 69 68 68 68 68 69 69 68 67 67 67 67 67 67 67 66 66 66 66 67 67 67 67 68 68 68 69 69 69 70 70 71 71 72 72 73 73 74 74 75 75 76 76 77 77 78 78 79 79 80 80 81 82 82 83
59 59 60 60 60 60 61 61 62 62 63 64 65 65 66 67 68 69 69 70 70 71 71 72 72 72 72 72 72 72 71 71 70 69 69 70 70 70 69 68 68 67 67 67 67 67 67 66 66 66 66 67 67 67 67 67 67 68 68 68 69 69 69 69 70 70 71 71 72 72 73 73 74 74 75 75 76 76 77 77 78 78 79 80 80 81
60 61 61 61 62 62 62 63 63 64 65 65 66 67 67 68 69 70 71 71 72 72 72 73 73 73 73 73 73 73 73 73 71 71 70 71 71 70 69 69 68 68 67 67 67 68 68 67 66 65 65 66 66 66 66 66 67 67 67 67 67 68 68 68 68 69 69 70 70 71 71 72 72 73 73 74 74 75 75 75 76 76 77 78 78 79
61 62 62 63 63 64 64 64 65 65 66 67 67 68 69 70 70 71 72 72 73 73 73 74 74 74 74 74 74 74 74 74 73 72 71 71 71 71 70 69 69 68 67 67 67 67 68 67 66 65 65 65 65 66 65 66 66 66 66 66 67 67 67 67 67 68 68 68 69 69 70 70 71 71 72 72 73 73 74 74 74 75 75 76 77 77
62 63 63 64 64 65 65 66 66 67 67 68 69 70 70 71 72 72 73 73 74 74 74 74 75 75 75 75 75 75 75 74 74 73 72 72 72 71 70 69 69 68 68 67 67 67 67 67 67 66 65 65 65 65 65 65 65 65 65 66 66 66 66 66 66 67 67 67 68 68 69 69 70 70 71 71 71 72 72 72 73 73 74 74 75 76
63 64 64 65 65 66 66 67 67 68 69 70 70 71 72 73 73 74 74 75 75 75 75 75 75 76 76 76 76 76 75 75 74 73 72 72 72 71 70 69 69 68 68 67 67 67 67 67 66 66 65 65 64 63 63 64 64 64 64 64 65 65 65 65 65 66 66 66 67 67 67 68 68 69 69 70 70 71 71 71 72 72 72 73 74 74
64 65 65 65 66 66 67 68 68 69 70 71 72 72 73 74 75 75 75 76 76 76 76 76 76 76 76 77 77 77 76 75 74 73 72 72 71 70 70 69 68 67 67 67 67 67 67 66 66 66 65 65 64 63 62 62 62 63 63 63 64 64 64 64 65 65 65 66 66 66 67 67 67 68 68 69 69 70 70 70 71 71 71 72 72 73
65 65 66 66 67 67 68 68 69 70 71 72 73 73 74 75 76 76 76 77 77 77 77 77 77 77 77 77 77 77 77 75 74 73 72 71 70 69 69 68 67 67 66 66 66 66 66 66 66 65 65 64 64 62 61 60 61 61 62 62 62 63 63 64 64 65 65 65 65 66 66 66 67 67 67 68 68 69 69 70 70 70 71 71 71 72
66 66 67 67 67 68 69 69 70 71 72 73 74 74 75 76 76 77 77 77 78 78 78 78 77 77 77 77 77 77 76 75 74 72 71 70 69 68 68 67 67 66 66 66 66 66 66 66 66 65 64 64 63 62 61 60 60 60 61 61 62 62 63 63 63 64 64 64 64 64 64 65 65 65 66 66 67 67 68 68 69 69 69 69 69 70
67 67 68 68 68 69 70 70 71 72 73 74 74 75 76 77 77 77 78 78 78 78 78 78 78 78 78 78 77 76 76 74 73 71 70 69 68 67 67 66 66 65 65 65 65 65 65 65 65 65 64 63 63 62 61 60 60 60 60 61 61 62 62 62 62 62 62 62 62 62 62 62 63 63 64 64 64 65 66 66 66 67 67 67 67 67
67 68 68 69 69 70 70 71 72 73 74 75 75 76 77 77 78 78 78 79 79 79 79 79 79 78 78 78 77 76 75 73 72 70 69 68 67 66 66 65 65 65 64 64 63 63 63 64 64 64 63 63 63 62 61 61 60 61 61 60 60 60 60 60 60 60 60 60 60 60 60 60 60 61 61 62 62 63 64 64 64 64 64 64 64 64
68 69 69 69 70 71 71 72 73 74 75 76 76 77 78 78 78 79 79 79 79 79 79 79 79 78 78 77 76 75 73 72 70 69 68 67 66 65 64 64 64 64 63 63 62 62 62 62 62 62 63 63 63 63 62 61 61 61 60 60 60 59 58 58 57 57 57 57 57 57 57 58 58 58 59 60 60 61 61 62 61 61 61 61 61 61
69 69 70 70 71 71 72 73 74 75 76 77 77 78 78 79 79 79 79 80 80 79 79 79 79 78 77 76 75 73 72 70 69 67 66 65 65 64 64 63 63 63 63 62 62 61 61 61 62 62 62 62 63 63 62 62 61 60 60 59 58 57 56 55 55 55 55 55 55 55 55 56 56 57 57 58 59 59 59 59 59 59 58 58 58 58
70 70 71 71 72 73 73 74 75 76 77 78 78 79 79 79 79 80 80 80 80 80 80 79 79 78 77 75 73 72 70 68 67 66 65 64 64 63 63 63 62 62 62 61 61 61 60 60 61 61 62 62 63 63 62 61 60 59 58 57 57 56 55 53 53 52 53 53 53 53 54 54 55 55 56 56 57 57 57 57 56 56 56 56 56 56
71 71 71 72 73 74 74 75 76 77 78 78 79 79 80 80 80 80 80 80 80 80 79 79 78 77 76 74 72 70 68 66 65 64 64 63 63 62 62 62 61 61 61 61 61 61 60 60 61 61 61 62 62 62 61 60 58 57 56 55 55 55 54 53 52 51 51 51 51 52 52 52 53 54 54 54 54 54 54 54 54 54 53 53 53 53
71 72 72 73 74 75 76 77 77 78 79 79 80 80 80 80 80 80 80 80 80 80 79 78 77 75 74 72 70 68 66 65 63 63 62 62 62 61 61 61 60 60 60 60 60 61 61 61 61 61 61 61 60 60 59 58 57 55 55 54 54 53 53 52 51 51 50 50 50 50 51 51 52 52 52 52 52 52 51 51 51 51 51 51 51 51
72 73 73 74 75 76 77 78 78 79 80 80 80 80 80 80 80 80 80 80 80 79 78 77 75 74 72 70 68 66 65 63 62 61 61 61 60 60 60 59 59 59 59 60 60 61 61 62 62 61 60 59 59 58 57 56 55 54 53 53 52 52 52 51 51 50 50 49 49 49 49 49 50 50 50 50 50 50 49 49 48 48 48 48 48 48
73 73 74 75 76 77 78 79 79 80 80 80 81 81 81 81 80 80 80 80 79 78 77 75 73 72 70 68 66 65 63 62 61 61 60 59 59 59 58 58 58 59 59 60 60 61 61 61 61 60 59 58 57 55 54 53 53 53 52 52 52 51 51 50 50 49 49 49 48 48 48 48 48 48 48 48 48 47 47 46 46 45 45 45 45 45
73 74 75 76 77 78 79 79 80 80 81 81 81 81 81 81 80 80 79 79 78 77 75 73 71 69 68 66 65 63 62 62 61 60 59 59 58 58 57 57 57 58 59 60 61 61 61 61 60 59 58 56 55 53 52 52 51 51 51 51 51 51 50 49 49 48 48 48 47 47 47 47 47 46 46 46 46 45 44 44 43 42 42 42 42 42
74 75 76 77 78 79 79 80 80 81 81 81 81 81 81 80 80 80 79 78 76 75 73 71 69 67 66 64 63 62 62 61 60 60 59 58 57 57 57 57 57 58 59 59 60 61 61 60 59 57 55 54 53 52 51 50 50 50 50 50 50 50 49 48 48 47 47 47 46 46 45 45 45 45 44 44 43 43 42 41 40 39 39 39 39 40
75 76 77 78 79 80 80 80 81 81 81 81 81 81 81 80 79 78 77 76 74 72 70 69 67 65 64 63 62 61 61 60 59 59 58 57 57 56 56 56 57 57 58 59 60 60 60 59 57 55 53 51 51 50 50 49 49 49 49 49 49 48 48 47 47 46 45 45 44 44 43 43 43 42 42 41 40 40 39 38 37 36 36 37 37 38
76 77 78 79 79 80 80 81 81 81 81 81 81 81 80 80 78 77 75 74 72 70 68 66 65 64 63 62 61 61 60 60 59 58 57 57 56 56 56 56 57 57 58 59 59 59 58 57 55 53 50 49 48 48 48 48 48 47 48 48 48 47 47 46 45 45 44 43 43 42 41 41 40 40 39 38 38 37 36 35 34 34 34 35 36 37
77 78 79 79 80 80 81 81 81 81 81 81 81 80 80 78 77 75 73 71 69 67 65 64 63 62 62 61 61 60 60 59 58 58 57 56 56 56 56 56 56 57 58 58 58 57 56 55 53 51 49 47 46 46 46 46 46 46 47 47 46 46 45 45 44 44 43 42 41 40 40 39 38 38 37 36 36 35 35 34 33 32 32 33 34 35
Wind_Direction
302 302 302 302 301 301 300 300 300 300 300 301 302 303 304 305 306 308 309 311 312 313 314 315 316 317 318 319 320 321 322 323 325 326 328 331 333 335 337 339 340 340 338 335 330 322 310 296 280 265 254 247 243 242 243 243 243 243 242 241 240 240 239 239 240 241 242 243 243 244 245 245 245 245 245 244 244 244 243 243 243 244 244 244 245 245
302 302 302 302 301 301 300 300 300 300 300 301 302 302 304 305 306 308 309 311 312 313 314 315 316 316 317 318 319 320 321 322 324 325 326 328 330 333 334 336 337 338 337 335 331 325 315 302 288 277 266 258 252 248 246 245 245 245 244 244 243 242 242 242 242 243 243 244 245 245 246 246 246 246 246 246 245 245 245 244 244 244 245 245 246 246
302 302 302 301 301 301 300 300 300 300 300 301 301 302 304 305 306 307 309 310 311 312 313 314 314 315 316 317 318 319 320 321 322 323 324 326 328 329 331 333 334 334 334 332 330 326 318 306 292 281 273 266 261 256 252 249 247 246 245 244 244 244 244 244 244 244 245 246 246 247 247 247 248 248 248 248 247 247 246 246 246 246 246 246 247 247
302 302 302 302 301 301 300 300 300 300 300 301 302 303 304 305 306 307 309 310 311 311 312 313 313 314 315 316 317 318 319 320 321 321 322 323 325 326 327 329 330 330 330 328 326 324 319 310 298 285 276 270 266 263 260 257 254 251 248 246 245 245 245 245 245 246 246 247 248 248 248 248 248 249 249 249 249 249 249 248 248 248 248 248 248 248
303 302 302 302 301 301 300 300 300 300 301 301 302 303 304 305 306 307 308 309 310 310 311 312 312 313 314 314 315 316 317 318 319 320 320 321 322 323 323 324 325 326 325 324 322 319 315 310 302 291 281 273 268 266 264 262 260 258 256 253 251 250 249 248 248 249 249 250 250 251 250 250 249 249 250 250 250 250 250 250 250 250 250 250 250 250
303 302 302 302 301 301 301 300 300 300 301 302 302 303 304 305 307 307 308 309 309 310 310 310 311 312 312 313 314 314 315 316 317 318 318 319 319 320 320 320 321 320 320 319 317 314 310 306 302 296 288 280 274 269 266 264 263 262 261 259 258 257 256 255 254 254 254 255 255 254 254 253 253 252 252 252 252 252 252 252 252 252 251 252 252 251
303 302 302 302 301 301 301 301 301 301 301 302 303 304 305 306 306 307 308 308 309 309 309 310 310 310 311 311 312 313 313 314 315 315 316 316 317 317 317 317 316 316 315 313 311 309 306 302 299 295 291 286 280 274 270 267 264 263 262 261 260 259 259 258 258 258 258 258 258 258 258 257 257 257 256 256 256 255 255 254 254 254 253 253 253 253
303 302 302 302 302 301 301 301 301 302 302 303 303 304 305 306 306 307 307 308 308 308 309 309 309 309 310 310 311 311 312 312 313 313 314 314 314 314 314 314 313 312 311 309 306 304 301 298 295 293 290 287 283 279 274 270 266 264 262 260 259 259 259 258 258 258 258 258 259 259 259 259 259 259 259 259 259 258 258 257 257 256 256 255 255 255
302 302 302 302 302 302 302 302 302 302 302 303 304 304 305 306 306 306 307 307 307 308 308 308 309 309 309 310 310 310 310 310 311 311 311 311 312 311 311 311 310 309 307 305 303 300 297 294 292 290 288 285 283 280 277 274 270 267 264 262 260 259 258 258 257 257 257 257 257 257 258 258 258 259 259 259 259 259 259 258 258 258 257 257 256 256
302 302 302 302 302 302 302 302 303 303 303 303 304 304 305 305 306 306 306 306 307 307 308 308 308 309 309 309 309 309 309 309 309 310 310 309 309 309 308 308 307 306 304 303 301 298 295 292 290 288 286 284 282 280 278 276 274 271 268 266 263 261 260 259 258 257 257 257 257 256 256 256 257 257 257 257 257 257 257 257 257 257 257 257 256 256
302 302 303 303 303 303 303 303 303 303 304 304 304 304 304 305 305 306 306 306 307 307 308 308 308 308 309 309 309 309 309 309 309 309 308 308 308 307 306 305 304 303 301 300 298 296 294 291 289 287 285 283 282 280 278 277 275 273 272 270 267 265 264 262 261 260 259 258 258 257 257 256 256 256 256 256 256 256 256 256 256 256 256 256 256 256
303 303 303 303 303 304 304 304 304 304 304 304 304 304 304 305 305 305 306 306 306 307 307 308 308 308 308 308 309 309 308 308 308 308 307 307 306 305 304 303 301 300 298 297 295 293 292 290 288 286 284 283 281 279 278 276 275 274 272 271 270 268 267 266 265 263 262 261 260 260 259 258 258 257 257 256 256 256 255 255 255 255 255 255 255 255
303 304 304 304 304 304 304 304 304 304 304 304 304 304 304 305 305 305 306 306 306 307 307 307 308 308 308 308 308 308 308 308 308 307 307 306 306 305 303 302 300 299 297 295 293 291 289 288 286 284 283 281 280 278 277 276 274 273 272 271 270 269 268 267 266 265 265 264 263 262 261 261 260 260 259 258 258 257 257 257 256 256 255 255 255 255
305 305 305 304 304 304 304 304 304 304 304 304 304 304 305 305 305 306 306 306 307 307 307 307 308 308 308 308 308 308 308 308 307 307 306 306 305 304 303 302 300 298 296 294 292 290 288 286 285 283 282 280 279 278 276 275 274 272 271 270 269 269 268 267 266 266 265 265 264 264 263 262 262 261 261 260 260 259 259 258 258 258 257 257 257 256
306 306 306 305 305 305 305 305 305 304 304 305 305 305 305 306 306 306 307 307 307 307 307 308 307 308 308 308 308 308 308 307 307 306 306 305 305 304 303 302 300 299 297 295 293 291 289 287 285 283 282 280 278 277 276 275 273 272 271 270 269 268 267 266 266 265 264 264 264 263 263 263 263 262 262 261 261 261 260 260 260 259 259 259 258 258
307 307 307 306 306 306 306 306 305 305 305 306 306 306 306 307 307 307 307 307 308 308 308 308 308 308 308 307 307 307 307 306 306 305 305 304 304 303 303 302 300 299 298 296 294 293 291 289 287 285 283 282 280 278 277 276 274 273 272 271 270 269 268 267 266 265 265 264 263 263 263 262 262 262 262 262 262 261 261 261 261 260 260 260 260 259
308 308 308 307 307 307 307 307 307 307 307 307 307 307 307 307 308 308 308 308 308 308 308 308 308 308 307 307 307 306 306 305 305 304 304 303 303 302 302 301 300 299 298 296 295 294 292 291 289 288 286 284 283 281 279 278 276 275 274 273 272 271 270 269 268 267 266 265 265 264 263 263 262 262 262 261 261 261 261 261 261 261 261 261 261 260
308 308 308 308 308 308 308 308 307 307 308 308 308 308 308 308 308 308 308 308 308 308 308 308 307 307 307 307 306 306 305 304 304 303 302 302 301 301 300 299 298 297 297 296 295 294 293 291 290 289 287 286 284 283 282 280 279 278 276 275 274 273 272 271 270 269 268 268 267 266 265 264 264 263 262 262 262 261 261 261 261 261 261 261 261 261
308 308 308 308 308 308 308 308 308 308 308 308 308 308 308 308 308 308 308 308 308 308 307 307 307 307 306 306 305 305 304 303 303 302 301 301 300 299 299 298 297 296 295 295 294 293 292 291 290 289 287 286 285 284 283 282 281 279 278 277 276 275 274 272 272 271 270 269 269 268 267 266 266 265 264 264 263 262 262 261 261 261 261 261 260 260
308 308 308 309 309 309 308 308 309 309 309 309 309 309 309 309 309 309 308 308 308 307 307 307 307 306 306 305 305 304 304 303 302 301 300 300 299 299 298 297 296 295 294 293 293 292 291 290 289 288 287 286 285 284 283 282 281 280 279 278 277 276 275 274 273 272 271 271 270 269 269 268 267 267 266 265 265 264 263 263 262 262 261 261 260 260
308 308 309 309 309 309 309 309 309 309 309 310 309 309 309 309 309 309 308 308 308 307 307 307 306 306 305 305 304 304 303 303 302 301 300 299 299 298 297 296 295 294 294 293 292 291 290 289 288 287 286 286 285 284 283 282 281 280 279 278 278 277 276 275 274 273 272 272 271 270 269 269 268 268 267 267 266 265 265 264 264 263 263 262 262 261
308 309 309 309 309 309 309 310 310 310 310 310 310 310 310 310 309 309 309 308 308 308 307 307 306 306 305 305 304 303 303 302 302 301 300 299 298 298 297 296 295 294 293 292 292 291 290 289 288 287 286 285 285 284 283 282 281 280 279 278 278 277 276 275 275 274 273 272 272 271 271 270 269 269 268 268 267 267 266 265 265 265 264 263 263 262
308 309 309 309 309 309 309 310 310 310 310 310 310 310 310 310 310 309 309 309 308 308 308 307 306 306 305 305 304 304 303 302 302 301 300 299 298 298 297 296 295 294 293 292 291 290 289 288 287 286 286 285 284 283 283 282 281 280 279 279 278 277 277 276 275 275 274 273 273 272 271 271 270 270 269 269 268 268 267 267 266 266 265 265 264 264
309 309 309 309 309 309 309 310 310 310 310 310 310 310 310 310 310 309 309 309 309 308 308 307 307 306 306 305 305 304 303 303 302 301 300 299 299 298 297 296 295 294 293 292 291 290 289 288 287 286 285 285 284 283 283 282 281 280 280 279 278 277 277 276 276 275 275 274 274 273 272 272 271 271 270 270 269 269 268 268 267 267 266 266 265 265
309 309 309 309 309 309 309 309 310 310 310 310 310 310 310 310 310 310 310 309 309 309 308 308 307 307 306 306 305 305 304 304 303 302 301 300 300 299 298 297 296 295 294 293 292 291 290 289 288 287 286 285 284 283 283 282 281 281 280 279 278 278 277 277 276 276 275 275 274 274 273 272 272 271 271 270 270 269 269 268 268 267 267 266 266 265
308 308 309 309 309 309 309 309 310 310 310 310 310 310 310 310 310 310 310 310 310 309 309 308 308 308 307 307 306 306 305 304 303 303 302 301 300 299 298 297 296 295 294 293 292 291 290 289 288 287 287 286 285 284 283 283 282 281 280 280 279 278 277 277 276 276 275 275 274 274 273 273 272 272 272 271 271 270 269 269 268 268 267 267 266 266
308 308 308 308 309 309 309 309 310 310 310 310 311 311 311 311 311 310 310 310 310 310 309 309 309 309 308 308 307 306 306 305 304 303 303 302 301 300 299 298 297 296 295 294 293 292 291 290 289 289 288 287 286 286 285 284 283 282 281 280 280 279 278 278 277 276 276 275 275 274 274 274 273 273 272 272 271 271 270 270 269 269 268 267 267 266
307 308 308 308 308 309 309 310 310 310 310 310 310 311 311 311 311 311 311 311 311 310 310 310 310 309 309 309 308 307 307 306 305 304 304 303 302 301 300 299 298 297 296 295 294 293 292 291 290 290 289 288 288 287 286 285 284 283 282 282 281 280 279 279 278 277 277 276 276 276 275 275 274 274 273 273 272 272 271 271 270 269 269 268 268 267
307 307 308 308 308 309 309 309 310 310 310 310 310 311 311 311 311 311 311 311 311 311 311 311 310 310 310 309 309 308 307 307 306 306 305 304 303 301 301 300 299 298 297 296 295 294 293 292 292 291 290 290 289 288 287 286 285 285 284 283 282 281 281 280 280 279 278 278 277 277 276 276 275 275 274 274 273 272 272 271 271 270 270 269 269 268
307 307 307 308 308 309 309 309 309 309 310 310 310 310 310 311 311 311 311 311 311 311 311 311 311 311 310 310 310 309 308 308 307 306 306 305 304 303 302 301 300 299 299 298 297 296 295 294 293 292 291 291 290 289 288 287 287 286 285 284 283 283 282 282 281 280 280 279 279 278 278 277 277 276 275 275 274 273 273 272 272 271 271 270 269 269
307 307 307 308 308 308 309 309 309 309 309 310 310 310 310 310 310 311 311 311 311 311 311 311 311 311 311 310 310 310 309 308 308 307 307 306 305 304 303 302 301 300 300 299 298 297 296 295 294 293 292 291 291 290 289 289 288 287 286 286 285 284 284 283 282 282 281 281 280 279 279 278 278 277 276 276 275 274 274 273 273 272 271 271 270 270
306 307 307 308 308 308 309 309 309 309 309 310 310 310 310 310 310 310 310 311 311 311 311 311 311 311 310 310 310 310 309 309 308 308 307 306 305 304 304 303 302 301 300 300 299 298 297 296 295 294 293 292 292 291 290 290 289 289 288 287 287 286 285 285 284 283 282 282 281 281 280 279 279 278 277 277 276 275 275 274 273 273 272 271 271 270
306 306 307 307 308 308 308 309 309 309 309 309 310 310 310 310 310 310 310 310 311 311 311 311 311 311 310 310 310 309 309 309 308 308 307 306 306 305 304 303 303 302 301 300 299 298 297 297 296 295 294 293 292 292 291 291 290 290 289 289 288 287 287 286 285 284 284 283 282 282 281 280 280 279 278 277 277 276 275 274 274 273 272 272 271 270
305 306 306 307 307 308 308 308 309 309 309 309 309 310 310 310 310 310 310 310 310 311 311 311 311 311 310 310 310 309 309 309 308 308 307 306 306 305 304 304 303 302 301 301 300 299 298 297 296 295 295 294 293 293 292 292 292 291 291 290 290 289 288 287 287 286 285 284 283 283 282 281 280 280 279 278 277 277 276 275 274 273 272 272 271 270
305 306 306 306 307 307 308 308 308 309 309 309 309 309 310 310 310 310 310 310 310 310 311 310 310 310 310 310 310 309 309 309 308 308 307 306 306 305 304 304 303 302 302 301 300 299 298 298 297 296 296 295 294 294 293 293 293 292 292 291 291 290 289 289 288 287 286 285 285 284 283 282 281 281 280 279 278 277 276 275 274 273 272 272 271 270
305 305 306 306 307 307 307 308 308 308 309 309 309 309 309 310 310 310 310 310 310 310 310 310 310 310 310 310 309 309 309 308 308 308 307 306 306 305 304 304 303 302 302 301 300 299 299 298 298 297 297 296 296 295 294 294 294 293 293 292 292 291 291 290 289 288 288 287 286 285 284 283 282 281 280 279 279 278 277 275 274 273 272 272 271 270
304 305 305 306 306 307 307 308 308 308 308 308 309 309 309 309 310 310 310 310 310 310 310 310 310 310 310 309 309 309 308 308 308 307 307 306 306 305 304 303 303 302 302 301 301 300 299 299 299 298 298 297 297 297 296 295 295 294 294 294 293 293 292 291 290 289 289 288 287 286 285 284 283 282 281 280 279 278 277 276 275 274 273 272 271 271
304 305 305 306 306 307 307 307 308 308 308 308 308 309 309 309 309 309 310 310 310 310 310 310 310 310 309 309 309 309 308 308 308 307 307 306 305 305 304 303 303 302 302 301 301 301 300 300 300 299 299 299 298 298 297 297 297 296 296 295 294 294 293 292 291 291 290 289 288 287 286 285 284 283 282 281 280 278 277 276 275 274 274 273 272 272
304 304 305 306 306 307 307 307 308 308 308 308 308 309 309 309 309 309 309 309 310 310 310 310 309 309 309 309 309 308 308 308 308 307 307 306 305 305 304 304 303 303 302 302 301 301 301 301 301 300 300 300 299 299 299 299 299 298 297 296 295 294 294 293 292 292 291 290 290 289 288 286 285 284 283 281 280 279 278 277 276 276 275 274 274 273
304 304 305 306 306 307 307 307 307 308 308 308 308 308 309 309 309 309 309 309 309 309 309 309 309 309 309 309 309 308 308 308 308 307 307 306 305 305 304 304 303 303 303 302 302 302 302 301 301 301 301 301 301 300 300 300 300 299 299 298 297 296 295 294 294 293 293 292 291 290 289 287 286 285 283 282 281 280 279 278 278 277 276 276 275 274
304 305 305 306 306 307 307 307 307 307 308 308 308 308 308 309 309 309 309 309 309 309 309 309 309 309 309 309 308 308 308 308 308 307 307 306 306 305 305 304 304 303 303 303 303 302 302 302 302 302 302 301 301 301 301 301 301 300 300 299 298 297 296 296 295 295 294 293 292 291 289 288 286 285 284 282 281 280 280 279 279 278 277 277 276 275
304 305 305 306 306 307 307 307 307 307 308 308 308 308 308 309 309 309 309 309 309 309 309 309 309 309 309 309 308 308 308 308 308 307 307 306 306 305 305 305 304 304 304 304 304 303 303 303 303 302 302 302 302 302 302 302 302 301 300 300 299 299 298 297 297 296 295 294 292 291 289 288 286 285 283 282 282 281 280 280 279 279 278 278 277 276
304 305 306 306 307 307 307 307 307 307 307 308 308 308 308 309 309 309 309 309 309 309 309 309 309 309 309 309 308 308 308 308 307 307 307 306 306 306 305 305 305 305 305 305 305 304 304 303 303 303 303 303 303 303 303 303 303 302 302 301 301 301 300 299 298 297 295 294 293 291 290 288 287 285 284 283 282 282 281 280 280 279 279 278 278 277
305 305 306 306 307 307 307 307 307 307 307 308 308 308 308 308 308 308 309 309 309 309 309 309 309 309 309 308 308 308 308 308 307 307 307 306 306 306 306 306 306 306 306 306 305 305 305 304 304 304 304 304 304 304 304 304 304 303 303 303 303 303 302 301 300 298 296 295 293 292 290 289 287 286 285 284 283 282 282 281 280 280 279 279 278 278
305 306 306 306 306 306 306 307 307 307 307 308 308 308 308 308 308 308 308 309 309 309 309 309 309 309 309 308 308 308 308 307 307 307 307 306 306 306 306 306 306 307 306 306 306 305 305 305 304 305 305 305 305 304 305 305 305 305 305 305 304 303 302 301 301 299 298 296 295 293 292 290 289 288 286 285 284 284 283 282 281 281 280 280 279 278
305 306 306 306 306 306 306 306 307 307 307 308 308 308 308 308 308 308 309 309 309 309 309 309 309 309 309 308 308 308 308 308 307 307 307 307 307 307 307 307 307 307 307 307 306 305 305 305 305 305 305 305 305 305 305 306 306 306 306 306 305 304 303 302 302 301 299 298 297 295 294 292 291 289 288 287 286 285 285 284 283 282 282 281 280 279
305 305 306 306 306 306 306 306 307 307 307 308 308 308 308 308 308 309 309 309 309 309 309 309 309 309 308 308 308 308 308 307 307 307 307 307 307 307 308 308 308 308 308 307 306 306 305 305 305 306 306 306 306 306 307 307 307 307 307 306 306 305 304 304 303 302 301 300 299 297 296 294 293 292 291 290 289 288 287 286 285 285 284 282 281 280
305 305 305 305 306 306 306 307 307 307 307 307 308 308 308 308 308 309 309 309 309 309 309 309 309 308 308 308 308 308 308 307 307 307 307 307 308 308 309 309 309 308 308 307 306 306 305 305 305 306 306 307 307 307 308 308 308 308 308 307 307 306 306 305 305 304 303 302 301 300 299 297 296 295 293 292 291 290 289 288 287 286 285 283 281 279
305 305 305 305 305 306 306 307 307 307 307 307 307 308 308 308 309 309 309 309 309 309 309 309 308 308 308 308 308 307 307 307 307 307 308 308 309 309 309 309 309 308 307 307 306 305 305 305 306 306 307 307 308 308 309 309 309 309 308 308 307 307 307 307 306 306 305 304 304 303 301 300 299 297 296 295 293 292 291 289 288 286 285 283 281 279
304 305 305 305 306 306 306 307 307 307 307 307 307 308 308 309 309 309 309 309 309 309 308 308 308 308 307 307 307 307 307 307 307 308 308 309 309 310 310 310 309 308 307 306 306 305 305 305 306 306 307 307 308 309 309 310 310 310 309 309 308 308 308 308 308 308 307 307 306 305 304 302 301 299 297 296 294 292 290 289 287 286 284 283 281 279
304 305 305 306 306 306 307 307 307 307 307 307 308 308 308 309 309 309 309 309 309 308 308 308 308 307 307 307 307 307 307 307 308 308 309 310 310 310 310 310 309 308 307 307 306 306 306 306 306 306 307 307 308 309 310 311 311 311 310 310 310 310 310 310 309 309 309 309 308 307 306 304 302 300 298 296 294 292 290 289 288 287 285 284 282 281
Height
10499 10496 10495 10493 10491 10488 10486 10485 10482 10480 10477 10476 10475 10473 10471 10470 10468 10466 10464 10462 10460 10458 10456 10453 10451 10448 10445 10443 10440 10437 10435 10432 10430 10428 10426 10425 10422 10419 10416 10413 10410 10409 10408 10406 10406 10406 10406 10407 10408 10410 10411 10413 10414 10415 10416 10418 10420 10421 10422 10423 10424 10425 10426 10427 10428 10430 10431 10431 10433 10435 10436 10437 10438 10440 10440 10441 10443 10444 10445 10446 10448 10449 10450 10451 10453 10453
10495 10492 10490 10489 10487 10485 10482 10481 10479 10476 10475 10473 10471 10470 10468 10467 10465 10463 10461 10459 10457 10455 10453 10451 10448 10446 10443 10441 10438 10435 10433 10430 10428 10426 10425 10423 10422 10420 10417 10414 10411 10410 10408 10407 10406 10406 10406 10406 10407 10409 10410 10411 10413 10414 10415 10415 10416 10418 10418 10420 10421 10421 10423 10424 10425 10426 10426 10428 10428 10430 10431 10432 10433 10434 10435 10436 10437 10438 10440 10441 10442 10443 10444 10445 10446 10448
10490 10488 10486 10485 10483 10481 10479 10477 10475 10473 10471 10470 10468 10466 10465 10463 10462 10460 10458 10456 10454 10452 10450 10448 10446 10443 10441 10439 10436 10434 10431 10429 10426 10425 10423 10421 10421 10419 10418 10415 10413 10410 10409 10408 10407 10406 10406 10406 10407 10408 10408 10410 10411 10411 10412 10413 10413 10414 10415 10416 10417 10418 10419 10420 10421 10422 10423 10423 10425 10425 10426 10428 10429 10429 10430 10430 10431 10433 10434 10435 10436 10437 10438 10440 10441 10442
10486 10484 10482 10480 10479 10477 10475 10473 10471 10470 10468 10466 10465 10463 10461 10460 10458 10457 10455 10453 10451 10449 10447 10445 10443 10441 10439 10437 10435 10432 10430 10428 10425 10423 10421 10420 10419 10418 10417 10415 10413 10411 10410 10408 10407 10406 10406 10406 10407 10407 10408 10408 10409 10410 10410 10411 10411 10411 10411 10412 10413 10414 10415 10416 10416 10418 10418 10419 10420 10421 10422 10423 10423 10424 10424 10425 10426 10427 10428 10429 10430 10431 10433 10434 10435 10436
10482 10480 10478 10476 10475 10473 10471 10470 10468 10466 10465 10463 10461 10460 10458 10456 10455 10453 10451 10450 10448 10446 10445 10443 10441 10439 10436 10435 10433 10431 10428 10426 10424 10421 10420 10418 10416 10416 10415 10415 10413 10411 10410 10408 10406 10406 10406 10406 10406 10406 10406 10406 10407 10407 10408 10408 10408 10409 10409 10410 10410 10411 10411 10412 10413 10413 10414 10415 10415 10416 10416 10417 10418 10418 10418 10419 10420 10421 10422 10423 10425 10426 10427 10428 10429 10430
10478 10476 10474 10473 10471 10469 10468 10466 10465 10463 10461 10459 10458 10456 10454 10453 10451 10450 10448 10446 10445 10443 10441 10440 10438 10436 10434 10432 10430 10428 10426 10425 10422 10420 10418 10416 10415 10413 10413 10412 10411 10411 10410 10408 10406 10405 10405 10404 10404 10405 10405 10405 10405 10405 10405 10405 10405 10406 10406 10406 10407 10408 10408 10409 10410 10410 10410 10411 10411 10411 10412 10412 10413 10413 10413 10414 10415 10415 10416 10418 10418 10420 10421 10421 10423 10423
10474 10473 10471 10469 10467 10466 10465 10463 10461 10460 10458 10456 10454 10452 10451 10449 10447 10446 10444 10442 10441 10439 10438 10436 10435 10433 10431 10430 10428 10426 10425 10423 10421 10419 10416 10415 10413 10411 10410 10410 10409 10408 10408 10407 10406 10405 10403 10403 10402 10402 10402 10402 10402 10403 10403 10403 10403 10403 10403 10403 10403 10404 10404 10405 10405 10405 10406 10406 10406 10407 10407 10407 10408 10408 10408 10409 10410 10410 10411 10412 10413 10413 10415 10415 10416 10417
10470 10468 10467 10465 10463 10461 10460 10459 10458 10456 10455 10453 10450 10448 10446 10445 10443 10441 10440 10438 10437 10435 10433 10431 10430 10429 10428 10426 10425 10423 10421 10420 10418 10416 10415 10413 10411 10410 10408 10406 10406 10406 10405 10405 10404 10403 10402 10401 10401 10400 10400 10400 10400 10400 10400 10400 10400 10400 10400 10400 10400 10400 10400 10401 10401 10401 10401 10401 10401 10401 10402 10402 10402 10403 10403 10404 10404 10405 10405 10406 10406 10408 10408 10409 10410 10410
10466 10465 10463 10461 10460 10458 10456 10455 10454 10453 10451 10449 10447 10445 10443 10441 10439 10438 10436 10434 10433 10431 10430 10428 10426 10425 10423 10422 10421 10420 10418 10416 10415 10414 10413 10411 10410 10408 10406 10405 10403 10403 10402 10401 10401 10401 10400 10400 10399 10398 10398 10397 10396 10396 10396 10396 10396 10396 10396 10396 10396 10396 10396 10396 10396 10396 10396 10396 10396 10396 10396 10397 10397 10397 10398 10398 10398 10399 10399 10400 10400 10401 10401 10402 10403 10403
10463 10461 10460 10458 10456 10455 10453 10451 10449 10448 10447 10445 10443 10441 10440 10438 10435 10433 10431 10430 10428 10427 10425 10424 10421 10420 10418 10417 10416 10415 10414 10413 10411 10410 10410 10408 10407 10406 10404 10403 10401 10400 10399 10398 10398 10397 10397 10396 10396 10395 10395 10394 10393 10393 10393 10393 10392 10392 10392 10391 10391 10391 10391 10391 10391 10391 10391 10391 10391 10391 10391 10391 10391 10391 10391 10392 10392 10393 10393 10393 10394 10394 10395 10395 10396 10396
10460 10458 10456 10454 10452 10451 10450 10447 10445 10444 10443 10441 10439 10437 10436 10434 10432 10430 10428 10426 10424 10423 10421 10420 10418 10416 10414 10413 10411 10411 10410 10408 10407 10406 10405 10405 10404 10403 10401 10400 10399 10398 10396 10395 10395 10393 10393 10393 10392 10391 10391 10390 10390 10390 10389 10388 10388 10388 10388 10387 10387 10386 10386 10386 10386 10386 10386 10385 10385 10385 10385 10385 10385 10385 10385 10385 10385 10386 10386 10386 10386 10387 10388 10388 10388 10389
10456 10454 10452 10450 10448 10446 10445 10443 10442 10440 10438 10437 10435 10433 10431 10430 10428 10426 10425 10422 10420 10418 10417 10415 10414 10412 10411 10409 10407 10406 10405 10404 10403 10402 10401 10401 10400 10399 10398 10397 10396 10395 10394 10393 10391 10391 10390 10389 10388 10388 10387 10386 10386 10385 10385 10385 10384 10383 10383 10383 10382 10381 10381 10381 10381 10380 10380 10380 10380 10379 10379 10379 10378 10378 10378 10378 10378 10378 10378 10378 10379 10379 10380 10380 10380 10381
10452 10450 10448 10446 10445 10443 10441 10440 10438 10436 10435 10433 10431 10429 10427 10425 10424 10423 10421 10419 10417 10415 10413 10411 10410 10408 10407 10405 10403 10402 10400 10399 10398 10398 10397 10396 10396 10395 10395 10393 10393 10392 10391 10390 10389 10388 10386 10386 10385 10384 10383 10383 10382 10381 10381 10380 10380 10379 10378 10378 10378 10377 10376 10376 10375 10375 10375 10374 10374 10373 10373 10373 10373 10372 10372 10371 10371 10371 10371 10371 10371 10371 10371 10371 10372 10372
10448 10446 10445 10443 10441 10439 10438 10436 10434 10432 10431 10429 10428 10426 10424 10422 10420 10419 10417 10415 10413 10412 10410 10408 10406 10405 10403 10401 10400 10398 10396 10395 10394 10393 10392 10391 10391 10391 10390 10389 10388 10388 10388 10386 10385 10385 10383 10383 10381 10381 10380 10379 10378 10378 10377 10376 10376 10375 10374 10373 10373 10372 10371 10371 10370 10370 10370 10369 10368 10368 10368 10367 10366 10366 10366 10365 10365 10365 10365 10365 10365 10364 10364 10364 10365 10365
10445 10443 10441 10439 10437 10436 10434 10433 10431 10429 10427 10426 10424 10423 10421 10419 10417 10416 10414 10411 10410 10408 10406 10405 10403 10401 10400 10398 10396 10395 10393 10391 10390 10388 10387 10386 10386 10386 10385 10384 10383 10383 10383 10382 10381 10380 10380 10378 10378 10376 10376 10375 10375 10373 10373 10372 10371 10371 10370 10369 10368 10368 10367 10366 10365 10365 10364 10363 10363 10362 10361 10361 10361 10360 10360 10359 10359 10358 10358 10358 10358 10358 10357 10357 10358 10358
10441 10440 10438 10436 10434 10432 10431 10429 10427 10425 10424 10422 10421 10419 10417 10415 10414 10412 10411 10408 10406 10405 10403 10401 10399 10397 10396 10395 10393 10391 10390 10388 10386 10385 10383 10382 10381 10381 10380 10379 10378 10377 10377 10376 10376 10375 10374 10373 10373 10372 10371 10370 10370 10368 10368 10367 10366 10366 10365 10364 10363 10363 10361 10361 10360 10360 10358 10358 10357 10356 10356 10355 10355 10354 10353 10353 10352 10352 10351 10351 10351 10350 10350 10350 10350 10350
10438 10436 10435 10433 10431 10429 10427 10426 10424 10422 10420 10419 10417 10416 10414 10412 10410 10409 10407 10405 10403 10401 10400 10398 10396 10394 10392 10390 10390 10388 10387 10385 10382 10380 10380 10378 10378 10377 10376 10375 10373 10371 10371 10371 10370 10369 10368 10367 10366 10366 10365 10364 10363 10363 10362 10361 10361 10360 10360 10358 10358 10356 10356 10355 10354 10353 10352 10351 10351 10350 10350 10349 10348 10348 10347 10346 10346 10345 10345 10345 10344 10343 10343 10343 10343 10343
10435 10433 10431 10430 10428 10426 10424 10422 10420 10419 10417 10415 10414 10412 10410 10409 10407 10406 10403 10402 10400 10398 10396 10395 10393 10391 10390 10387 10385 10384 10383 10381 10378 10376 10375 10374 10373 10373 10372 10371 10368 10367 10366 10365 10365 10363 10362 10361 10360 10360 10358 10358 10357 10356 10355 10355 10355 10354 10353 10352 10351 10350 10349 10348 10347 10346 10345 10345 10344 10343 10343 10342 10341 10341 10340 10340 10339 10338 10338 10338 10337 10336 10336 10336 10336 10335
10431 10430 10428 10426 10424 10422 10420 10419 10417 10415 10413 10411 10410 10408 10406 10405 10404 10402 10400 10398 10396 10395 10393 10391 10389 10388 10386 10384 10381 10380 10379 10377 10375 10372 10371 10370 10369 10368 10368 10366 10365 10363 10361 10360 10360 10358 10357 10356 10355 10353 10352 10351 10350 10350 10349 10348 10348 10347 10346 10345 10344 10343 10342 10341 10340 10339 10338 10338 10336 10336 10335 10335 10334 10333 10333 10332 10331 10331 10331 10330 10330 10330 10329 10328 10328 10328
10428 10426 10425 10423 10421 10418 10416 10415 10413 10411 10410 10408 10406 10405 10403 10401 10400 10398 10396 10395 10393 10391 10390 10388 10386 10384 10382 10380 10378 10376 10375 10373 10370 10368 10366 10365 10364 10363 10363 10362 10360 10358 10356 10355 10354 10353 10351 10350 10348 10347 10346 10345 10344 10343 10342 10341 10341 10340 10339 10338 10336 10336 10335 10333 10333 10331 10331 10330 10329 10328 10328 10327 10326 10325 10325 10324 10323 10323 10323 10322 10322 10321 10321 10321 10320 10320
10425 10423 10421 10420 10418 10415 10413 10411 10410 10408 10406 10405 10403 10401 10399 10397 10396 10394 10392 10390 10388 10386 10385 10383 10381 10380 10378 10376 10374 10372 10371 10369 10366 10363 10361 10360 10358 10358 10358 10356 10355 10353 10351 10350 10349 10348 10346 10344 10342 10341 10340 10338 10338 10336 10336 10335 10334 10333 10331 10330 10329 10328 10327 10326 10325 10324 10323 10322 10321 10320 10320 10319 10318 10317 10316 10316 10315 10315 10315 10314 10313 10313 10313 10313 10312 10312
10421 10420 10418 10416 10415 10412 10410 10408 10406 10405 10403 10401 10399 10396 10395 10393 10391 10390 10388 10386 10384 10382 10381 10379 10377 10376 10374 10372 10370 10368 10366 10365 10361 10358 10356 10354 10353 10352 10353 10351 10350 10347 10345 10344 10343 10342 10340 10338 10336 10335 10333 10332 10331 10330 10329 10328 10326 10325 10324 10323 10321 10320 10319 10318 10317 10316 10315 10314 10313 10312 10311 10310 10310 10309 10308 10307 10307 10306 10306 10305 10305 10305 10304 10304 10303 10303
10418 10416 10415 10413 10411 10409 10407 10405 10403 10401 10399 10397 10395 10393 10391 10390 10388 10385 10383 10381 10380 10378 10376 10374 10373 10371 10370 10368 10366 10364 10362 10360 10357 10354 10351 10348 10346 10346 10346 10345 10343 10341 10340 10338 10337 10336 10334 10332 10330 10328 10326 10325 10324 10323 10322 10321 10320 10318 10317 10315 10314 10313 10311 10310 10309 10308 10306 10305 10305 10303 10303 10301 10301 10300 10299 10298 10298 10297 10297 10296 10296 10296 10295 10295 10295 10294
10415 10413 10411 10410 10408 10406 10404 10401 10400 10398 10395 10393 10391 10390 10388 10386 10384 10381 10380 10378 10375 10373 10371 10370 10368 10366 10365 10363 10361 10359 10357 10355 10352 10349 10346 10343 10341 10340 10339 10338 10336 10335 10333 10332 10331 10330 10328 10326 10324 10322 10320 10318 10317 10316 10315 10314 10312 10311 10310 10308 10306 10305 10303 10302 10301 10300 10298 10297 10296 10295 10294 10293 10292 10291 10290 10290 10289 10288 10288 10287 10287 10286 10286 10286 10285 10285
10411 10409 10407 10405 10403 10402 10400 10398 10396 10394 10391 10390 10387 10385 10383 10381 10380 10377 10375 10373 10371 10369 10366 10364 10362 10360 10358 10357 10355 10353 10351 10350 10347 10344 10340 10337 10335 10333 10332 10331 10330 10328 10325 10325 10324 10323 10320 10318 10316 10315 10313 10311 10310 10309 10308 10306 10305 10303 10301 10300 10298 10297 10296 10294 10293 10291 10290 10288 10287 10286 10285 10284 10283 10282 10281 10280 10280 10279 10278 10278 10278 10277 10276 10276 10276 10275
10406 10405 10403 10401 10400 10398 10396 10394 10391 10390 10387 10385 10383 10381 10378 10376 10374 10372 10370 10368 10366 10364 10361 10359 10356 10355 10353 10351 10350 10348 10346 10344 10341 10338 10335 10332 10329 10326 10325 10325 10323 10320 10318 10317 10316 10315 10313 10311 10309 10307 10305 10303 10302 10301 10300 10298 10296 10295 10293 10292 10290 10289 10287 10286 10284 10283 10281 10280 10278 10277 10276 10275 10274 10273 10272 10271 10270 10270 10269 10268 10268 10268 10267 10266 10266 10265
10402 10400 10398 10397 10395 10393 10391 10389 10387 10385 10383 10380 10378 10376 10373 10371 10368 10366 10364 10363 10361 10358 10356 10353 10351 10348 10346 10345 10343 10341 10340 10337 10335 10332 10330 10326 10323 10320 10318 10317 10316 10313 10311 10309 10308 10307 10305 10303 10301 10299 10297 10295 10294 10293 10291 10290 10288 10286 10285 10283 10281 10280 10278 10276 10275 10273 10272 10271 10270 10268 10267 10266 10265 10263 10263 10261 10261 10260 10260 10259 10258 10258 10257 10256 10256 10255
10398 10396 10394 10392 10391 10389 10386 10385 10383 10380 10378 10376 10373 10371 10369 10366 10363 10360 10358 10356 10355 10352 10350 10347 10345 10342 10340 10338 10336 10334 10333 10330 10328 10325 10323 10320 10316 10313 10311 10310 10308 10306 10304 10301 10300 10299 10298 10295 10293 10291 10289 10287 10286 10284 10283 10281 10280 10278 10276 10274 10273 10271 10270 10268 10266 10265 10263 10261 10260 10259 10258 10256 10256 10255 10253 10252 10251 10250 10250 10249 10248 10248 10247 10246 10246 10245
10393 10391 10390 10388 10386 10384 10382 10380 10378 10376 10373 10371 10369 10366 10364 10361 10358 10355 10353 10351 10348 10346 10343 10341 10339 10336 10333 10331 10329 10327 10325 10323 10321 10319 10316 10313 10309 10306 10305 10303 10301 10299 10296 10294 10291 10290 10290 10288 10286 10283 10281 10279 10278 10276 10274 10273 10271 10269 10267 10265 10264 10262 10261 10259 10257 10256 10255 10253 10251 10250 10249 10248 10246 10245 10244 10243 10242 10241 10240 10240 10239 10238 10237 10236 10236 10235
10389 10387 10385 10383 10381 10380 10377 10375 10373 10371 10368 10366 10364 10361 10359 10356 10354 10351 10348 10346 10343 10340 10338 10335 10333 10330 10328 10325 10322 10319 10317 10316 10314 10312 10309 10305 10301 10299 10298 10296 10293 10291 10290 10286 10283 10281 10280 10280 10279 10276 10274 10271 10270 10268 10266 10264 10262 10260 10258 10257 10255 10254 10252 10251 10249 10248 10246 10245 10243 10242 10240 10239 10238 10236 10235 10234 10233 10231 10231 10230 10229 10228 10228 10226 10226 10225
10384 10382 10380 10378 10376 10374 10372 10370 10368 10366 10363 10361 10359 10356 10354 10351 10349 10346 10343 10341 10338 10335 10332 10330 10326 10325 10322 10319 10316 10313 10310 10308 10306 10305 10303 10298 10295 10292 10291 10288 10285 10283 10282 10280 10276 10273 10270 10270 10270 10269 10267 10264 10261 10260 10258 10256 10255 10252 10250 10249 10247 10246 10245 10243 10241 10240 10238 10236 10235 10233 10232 10230 10229 10228 10226 10225 10224 10223 10221 10221 10220 10219 10218 10217 10216 10215
10380 10378 10375 10373 10371 10369 10367 10365 10363 10360 10358 10356 10353 10351 10349 10346 10344 10341 10338 10336 10333 10330 10327 10324 10321 10318 10316 10314 10311 10308 10304 10301 10300 10298 10296 10291 10288 10285 10284 10281 10278 10276 10274 10273 10270 10267 10263 10260 10260 10260 10260 10257 10254 10252 10250 10249 10247 10245 10243 10241 10239 10238 10236 10235 10233 10231 10230 10228 10226 10225 10223 10222 10220 10219 10218 10216 10215 10214 10213 10212 10211 10210 10209 10208 10207 10206
10375 10373 10371 10368 10366 10364 10362 10360 10357 10355 10353 10350 10348 10346 10343 10341 10338 10336 10333 10330 10328 10325 10322 10319 10316 10313 10310 10308 10305 10301 10299 10296 10293 10291 10288 10285 10281 10278 10276 10275 10271 10269 10266 10265 10263 10261 10258 10254 10252 10251 10250 10250 10248 10245 10243 10241 10240 10237 10235 10233 10231 10230 10228 10227 10225 10223 10221 10220 10218 10217 10215 10214 10212 10210 10209 10208 10206 10205 10204 10203 10202 10201 10200 10199 10198 10196
10371 10369 10366 10364 10361 10360 10357 10355 10352 10350 10347 10345 10343 10340 10338 10335 10333 10330 10327 10325 10322 10320 10316 10313 10310 10307 10304 10301 10298 10295 10293 10290 10288 10285 10282 10279 10275 10272 10270 10268 10265 10262 10260 10257 10255 10253 10250 10248 10245 10243 10241 10241 10240 10240 10237 10235 10232 10230 10228 10226 10224 10222 10220 10219 10217 10215 10213 10212 10210 10209 10207 10206 10204 10202 10200 10199 10198 10196 10195 10194 10193 10192 10191 10190 10189 10188
10366 10364 10361 10360 10357 10355 10352 10350 10347 10345 10342 10340 10337 10335 10332 10330 10326 10324 10321 10318 10316 10313 10311 10308 10305 10302 10299 10295 10292 10288 10286 10283 10281 10279 10276 10273 10270 10266 10263 10261 10258 10256 10253 10250 10248 10246 10243 10240 10238 10236 10235 10232 10231 10231 10231 10229 10226 10223 10221 10220 10217 10215 10213 10211 10210 10207 10205 10204 10202 10201 10199 10197 10196 10194 10192 10190 10189 10187 10186 10185 10183 10183 10181 10181 10180 10179
10361 10359 10356 10355 10352 10350 10347 10345 10342 10340 10337 10335 10332 10329 10326 10324 10321 10318 10315 10313 10310 10307 10305 10301 10299 10296 10293 10290 10286 10283 10280 10277 10275 10273 10270 10266 10263 10260 10256 10254 10252 10250 10247 10243 10241 10239 10236 10233 10231 10229 10228 10225 10223 10223 10223 10223 10221 10218 10215 10213 10211 10208 10206 10204 10202 10200 10198 10196 10195 10193 10191 10189 10187 10185 10183 10181 10180 10178 10176 10175 10174 10173 10172 10171 10171 10170
10356 10354 10351 10350 10347 10345 10342 10340 10337 10335 10332 10329 10326 10324 10321 10318 10315 10313 10310 10306 10304 10301 10298 10295 10293 10290 10287 10285 10281 10278 10274 10271 10268 10266 10263 10260 10258 10255 10251 10248 10245 10244 10241 10238 10235 10232 10230 10226 10223 10221 10220 10218 10216 10215 10214 10214 10213 10211 10209 10206 10204 10201 10199 10197 10195 10193 10190 10188 10186 10185 10183 10181 10179 10177 10175 10173 10171 10170 10168 10166 10165 10165 10163 10163 10162 10161
10351 10348 10346 10344 10342 10340 10337 10335 10332 10330 10326 10324 10321 10318 10315 10313 10310 10307 10304 10301 10298 10295 10292 10289 10286 10283 10281 10278 10275 10271 10268 10265 10262 10260 10257 10254 10251 10248 10245 10241 10239 10237 10235 10233 10229 10226 10223 10220 10217 10215 10212 10210 10209 10208 10207 10206 10205 10204 10202 10200 10198 10195 10193 10190 10188 10186 10183 10181 10179 10177 10175 10173 10171 10168 10166 10165 10163 10161 10159 10158 10156 10156 10155 10155 10154 10153
10346 10343 10341 10339 10336 10335 10331 10329 10326 10324 10321 10318 10316 10313 10310 10307 10304 10301 10298 10295 10293 10290 10286 10283 10280 10278 10275 10271 10268 10265 10262 10259 10256 10253 10250 10248 10245 10242 10240 10236 10233 10230 10228 10226 10224 10221 10218 10215 10211 10209 10206 10203 10201 10200 10200 10199 10198 10196 10195 10192 10190 10188 10186 10184 10181 10179 10177 10175 10172 10170 10168 10166 10163 10161 10158 10156 10154 10152 10151 10150 10149 10148 10148 10147 10146 10146
10340 10338 10336 10334 10331 10329 10326 10324 10321 10318 10316 10313 10310 10307 10305 10301 10298 10295 10293 10290 10287 10284 10281 10278 10275 10271 10268 10265 10262 10259 10256 10253 10250 10247 10244 10241 10238 10236 10233 10230 10227 10225 10222 10220 10218 10215 10212 10209 10206 10203 10201 10198 10195 10193 10192 10192 10191 10190 10187 10185 10182 10181 10180 10178 10176 10173 10171 10168 10166 10163 10160 10158 10156 10153 10151 10148 10146 10145 10143 10142 10141 10141 10140 10140 10139 10138
10335 10333 10331 10328 10326 10324 10321 10318 10316 10313 10310 10307 10305 10301 10298 10296 10293 10290 10286 10283 10281 10278 10275 10271 10268 10265 10262 10259 10256 10253 10250 10246 10243 10241 10238 10235 10232 10230 10227 10225 10221 10219 10216 10213 10211 10209 10206 10203 10200 10197 10195 10192 10190 10188 10186 10185 10184 10183 10180 10178 10175 10173 10173 10171 10170 10167 10165 10161 10159 10156 10153 10151 10148 10146 10144 10141 10140 10138 10137 10136 10135 10134 10133 10133 10132 10131
10330 10328 10325 10323 10321 10318 10315 10313 10310 10307 10305 10301 10298 10295 10293 10290 10287 10283 10280 10277 10274 10271 10268 10265 10262 10258 10255 10252 10250 10247 10244 10241 10238 10235 10231 10229 10226 10223 10221 10218 10216 10213 10210 10208 10205 10202 10200 10198 10195 10191 10189 10187 10184 10181 10180 10178 10178 10176 10173 10171 10168 10166 10165 10165 10163 10161 10158 10155 10153 10150 10147 10145 10142 10140 10137 10135 10133 10132 10131 10130 10128 10128 10127 10126 10125 10125
10325 10322 10320 10318 10315 10312 10310 10306 10304 10301 10298 10295 10293 10290 10287 10284 10281 10278 10275 10271 10268 10265 10261 10259 10256 10253 10249 10246 10243 10240 10238 10235 10233 10230 10226 10223 10221 10218 10215 10213 10210 10208 10205 10201 10198 10195 10193 10191 10190 10186 10184 10182 10180 10177 10175 10172 10171 10169 10167 10165 10163 10160 10158 10157 10156 10155 10152 10149 10146 10144 10141 10138 10136 10133 10131 10130 10128 10126 10125 10124 10123 10122 10121 10120 10120 10119
10319 10317 10315 10312 10310 10306 10304 10301 10298 10295 10292 10290 10286 10283 10281 10278 10275 10272 10268 10265 10262 10258 10255 10252 10249 10246 10243 10240 10237 10234 10231 10230 10227 10225 10221 10218 10216 10213 10210 10207 10205 10202 10200 10196 10193 10190 10186 10185 10183 10181 10180 10177 10175 10171 10170 10167 10165 10163 10161 10159 10157 10154 10151 10150 10148 10147 10145 10143 10141 10138 10135 10133 10130 10128 10126 10124 10123 10121 10120 10119 10118 10117 10116 10115 10115 10114
10314 10311 10309 10306 10304 10301 10298 10295 10292 10290 10286 10283 10280 10278 10275 10272 10269 10266 10263 10259 10255 10252 10249 10246 10243 10240 10236 10233 10231 10228 10226 10223 10221 10219 10216 10213 10211 10208 10206 10203 10200 10196 10193 10190 10188 10185 10181 10178 10176 10175 10173 10171 10170 10167 10165 10162 10160 10157 10155 10153 10151 10148 10146 10144 10142 10140 10138 10136 10135 10133 10130 10128 10125 10123 10121 10119 10118 10116 10115 10114 10113 10113 10111 10111 10110 10109
10308 10306 10303 10301 10298 10295 10292 10289 10286 10283 10280 10278 10275 10271 10269 10266 10263 10260 10256 10253 10250 10246 10243 10240 10237 10233 10230 10227 10225 10222 10220 10217 10215 10213 10211 10208 10206 10203 10201 10198 10195 10191 10188 10185 10181 10179 10176 10174 10171 10170 10168 10166 10164 10162 10160 10157 10155 10152 10150 10148 10146 10143 10141 10139 10137 10135 10133 10131 10129 10127 10125 10123 10120 10118 10116 10114 10113 10111 10111 10110 10109 10108 10107 10106 10105 10104
10303 10300 10298 10295 10292 10289 10286 10283 10281 10278 10275 10271 10268 10266 10263 10260 10256 10253 10250 10247 10244 10240 10236 10233 10231 10228 10225 10221 10219 10216 10214 10211 10210 10208 10206 10203 10201 10199 10196 10193 10190 10187 10183 10180 10176 10173 10171 10168 10166 10165 10163 10161 10159 10156 10155 10153 10150 10148 10145 10143 10140 10138 10136 10134 10132 10130 10128 10126 10124 10122 10120 10118 10116 10114 10112 10110 10108 10107 10106 10105 10105 10104 10103 10102 10101 10100
10298 10295 10292 10289 10286 10283 10280 10278 10275 10272 10268 10265 10262 10260 10256 10254 10251 10247 10243 10240 10238 10234 10231 10228 10225 10222 10219 10216 10214 10211 10209 10206 10204 10202 10200 10198 10196 10194 10191 10188 10185 10182 10178 10175 10171 10168 10165 10163 10161 10160 10158 10156 10154 10151 10150 10148 10146 10143 10141 10138 10135 10133 10131 10129 10128 10126 10124 10121 10120 10118 10116 10114 10112 10110 10108 10106 10105 10103 10102 10101 10100 10100 10098 10097 10096 10095
10292 10289 10286 10283 10280 10278 10275 10271 10269 10266 10263 10260 10256 10253 10250 10248 10245 10241 10238 10235 10231 10228 10225 10222 10219 10216 10213 10211 10209 10206 10204 10201 10200 10197 10195 10193 10191 10189 10186 10183 10181 10177 10174 10170 10167 10164 10161 10158 10157 10156 10155 10152 10150 10148 10145 10143 10141 10139 10136 10133 10131 10129 10126 10125 10123 10121 10120 10118 10116 10114 10112 10110 10108 10106 10104 10102 10100 10099 10098 10097 10096 10095 10094 10093 10091 10090
10286 10283 10280 10278 10275 10271 10268 10266 10263 10260 10256 10253 10250 10247 10244 10241 10238 10235 10232 10229 10226 10223 10220 10217 10214 10211 10208 10206 10203 10201 10199 10196 10194 10192 10190 10188 10186 10184 10181 10178 10176 10173 10169 10166 10162 10159 10156 10154 10152 10151 10150 10149 10146 10144 10141 10139 10137 10135 10132 10130 10127 10125 10123 10121 10119 10117 10115 10113 10111 10110 10108 10106 10104 10101 10100 10098 10096 10095 10093 10093 10092 10091 10090 10088 10086 10085
10280 10277 10274 10271 10268 10266 10263 10260 10256 10253 10250 10247 10244 10241 10238 10235 10232 10229 10226 10223 10220 10217 10214 10211 10209 10206 10203 10200 10198 10196 10194 10191 10190 10187 10185 10184 10181 10179 10176 10174 10171 10168 10164 10161 10158 10155 10152 10150 10148 10146 10146 10145 10144 10141 10138 10136 10133 10130 10128 10125 10123 10121 10119 10117 10115 10113 10111 10110 10108 10106 10104 10102 10100 10098 10095 10093 10092 10090 10089 10088 10088 10088 10086 10085 10083 10081